TimeCDT,TemperatureF,Dew PointF,Humidity,Sea Level PressureIn,VisibilityMPH,Wind Direction,Wind SpeedMPH,Gust SpeedMPH,PrecipitationIn,Events,Conditions,WindDirDegrees,DateUTC
12:53 AM,42.1,33.1,70,29.73,10.0,SW,10.4,-,N/A,,Clear,220,2014-03-10 05:53:00
1:53 AM,41.0,33.1,73,29.73,10.0,WNW,4.6,-,N/A,,Clear,290,2014-03-10 06:53:00
2:53 AM,39.0,32.0,76,29.73,10.0,SW,8.1,-,N/A,,Clear,230,2014-03-10 07:53:00
3:53 AM,37.0,30.9,79,29.73,10.0,WNW,8.1,-,N/A,,Clear,290,2014-03-10 08:53:00
4:53 AM,37.9,30.9,76,29.73,10.0,West,8.1,-,N/A,,Clear,260,2014-03-10 09:53:00
5:53 AM,37.0,30.9,79,29.74,10.0,West,4.6,-,N/A,,Clear,270,2014-03-10 10:53:00
6:53 AM,36.0,30.9,82,29.75,10.0,Calm,Calm,-,N/A,,Clear,0,2014-03-10 11:53:00
7:53 AM,34.0,30.0,85,29.76,10.0,West,6.9,-,N/A,,Clear,260,2014-03-10 12:53:00
8:53 AM,37.9,32.0,79,29.77,10.0,SW,3.5,-,N/A,,Clear,230,2014-03-10 13:53:00
9:53 AM,43.0,35.1,74,29.76,10.0,West,6.9,-,N/A,,Clear,260,2014-03-10 14:53:00
10:53 AM,48.0,39.0,71,29.77,10.0,West,10.4,-,N/A,,Clear,280,2014-03-10 15:53:00
11:53 AM,51.1,41.0,68,29.77,10.0,WNW,4.6,-,N/A,,Clear,300,2014-03-10 16:53:00
12:53 PM,54.0,43.0,66,29.76,10.0,North,5.8,-,N/A,,Clear,350,2014-03-10 17:53:00
1:53 PM,55.9,44.1,64,29.74,10.0,NNW,5.8,-,N/A,,Clear,340,2014-03-10 18:53:00
2:53 PM,55.9,44.1,64,29.73,10.0,NNW,6.9,-,N/A,,Clear,340,2014-03-10 19:53:00
3:53 PM,57.9,44.1,60,29.72,10.0,West,4.6,-,N/A,,Clear,260,2014-03-10 20:53:00
4:53 PM,57.9,45.0,62,29.70,10.0,NW,3.5,-,N/A,,Clear,320,2014-03-10 21:53:00
5:53 PM,55.0,46.0,72,29.69,10.0,NW,4.6,-,N/A,,Clear,320,2014-03-10 22:53:00
6:53 PM,51.1,45.0,80,29.71,10.0,Calm,Calm,-,N/A,,Clear,0,2014-03-10 23:53:00
7:53 PM,44.1,39.9,85,29.74,10.0,NNE,10.4,-,N/A,,Clear,30,2014-03-11 00:53:00
8:53 PM,39.9,37.0,89,29.75,10.0,NE,9.2,-,N/A,,Clear,50,2014-03-11 01:53:00
9:53 PM,42.1,37.0,82,29.73,10.0,East,4.6,-,N/A,,Clear,90,2014-03-11 02:53:00
10:53 PM,37.9,35.1,89,29.71,10.0,ENE,8.1,-,N/A,,Overcast,70,2014-03-11 03:53:00
11:53 PM,39.0,37.0,93,29.69,10.0,ENE,9.2,-,N/A,,Overcast,60,2014-03-11 04:53:00